WetterOnline ( https://www.wetteronline.de )

Wetter aktuell Bad Kissingen

Aktuelles Wetter: Bad Kissingen (266m)

6-stündlich | Neueste Meldungen
Ortszeit Temperatur Wetter
Do, 21.01. 1:00 -0.1° C bedeckt
Mi, 20.01. 19:00 2.7° C bedeckt
Mi, 20.01. 13:00 5.6° C wolkig
Mi, 20.01. 7:00 -1.1° C bedeckt
Mi, 20.01. 1:00 0.6° C bewölkt
Di, 19.01. 19:00 2.8° C bedeckt
Di, 19.01. 13:00 0.8° C Schneefall
Di, 19.01. 7:00 1.8° C bedeckt
Ortszeit Temperatur Wetter
Do, 21.01. 1:30 -0.7° C bedeckt
Do, 21.01. 1:20 -0.7° C bedeckt
Do, 21.01. 1:10 -0.5° C bedeckt
Do, 21.01. 1:00 -0.1° C bedeckt
Do, 21.01. 0:50 -0.1° C bedeckt
Do, 21.01. 0:40 -0.2° C bedeckt
Do, 21.01. 0:30 -0.0° C bedeckt
Do, 21.01. 0:00 0.1° C bedeckt
Mi, 20.01. 23:30 0.3° C bedeckt
Mi, 20.01. 23:00 0.8° C bedeckt
Mi, 20.01. 22:30 1.0° C bedeckt
Ortszeit Relative Feuchte Sichtweite
Do, 21.01. 1:00 96% 12 km
Mi, 20.01. 19:00 87% 50 km
Mi, 20.01. 13:00 65% >70 km
Mi, 20.01. 7:00 96% 13 km
Mi, 20.01. 1:00 96% 12 km
Di, 19.01. 19:00 90% 40 km
Di, 19.01. 13:00 94% 2.1 km
Di, 19.01. 7:00 76% 60 km
Ortszeit Relative Feuchte Sichtweite
Do, 21.01. 1:30 97% 6 km
Do, 21.01. 1:20 97% -
Do, 21.01. 1:10 96% -
Do, 21.01. 1:00 96% 12 km
Do, 21.01. 0:50 96% -
Do, 21.01. 0:40 97% -
Do, 21.01. 0:30 96% 12 km
Do, 21.01. 0:00 96% 16 km
Mi, 20.01. 23:30 95% 17 km
Mi, 20.01. 23:00 94% 27 km
Mi, 20.01. 22:30 92% 30 km
Ortszeit Niederschlagsmenge Niederschlagsart
Do, 21.01. 1:00 0.0 l/m2 in 6 Std. -
Mi, 20.01. 19:00 0.0 l/m2 in 12 Std. -
Mi, 20.01. 13:00 0.0 l/m2 in 6 Std. -
Mi, 20.01. 7:00 0.1 l/m2 in 12 Std. -
Mi, 20.01. 1:00 0.1 l/m2 in 6 Std. Regen
Di, 19.01. 19:00 3 l/m2 in 12 Std. Schnee, Regen
Di, 19.01. 13:00 1 l/m2 in 6 Std. Schnee, Niederschlag
Di, 19.01. 7:00 0.1 l/m2 in 12 Std. Regen
Ortszeit Niederschlagsmenge Niederschlagsart
Do, 21.01. 1:30 0.0 l/m2 in 1 Std. -
Do, 21.01. 1:20 keine Meldung -
Do, 21.01. 1:10 keine Meldung -
Do, 21.01. 1:00 0.0 l/m2 in 1 Std. -
Do, 21.01. 0:50 keine Meldung -
Do, 21.01. 0:40 keine Meldung -
Do, 21.01. 0:30 0.0 l/m2 in 1 Std. -
Do, 21.01. 0:00 0.0 l/m2 in 1 Std. -
Mi, 20.01. 23:30 0.0 l/m2 in 1 Std. -
Mi, 20.01. 23:00 0.0 l/m2 in 1 Std. -
Mi, 20.01. 22:30 0.0 l/m2 in 1 Std. -
Ortszeit Stärke Spitze Richtung
km/h Bft. km/h Grad Sektor
Do, 21.01. 1:00 11 2 14 20° N
Mi, 20.01. 19:00 7 2 29 20° N
Mi, 20.01. 13:00 9 2 19 220° SW
Mi, 20.01. 7:00 7 2 14 360° N
Mi, 20.01. 1:00 7 2 36 220° SW
Di, 19.01. 19:00 18 3 40 230° SW
Di, 19.01. 13:00 25 4 40 210° SW
Di, 19.01. 7:00 25 4 36 200° S
Ortszeit Stärke Spitze Richtung
km/h Bft. km/h Grad Sektor
Do, 21.01. 1:30 7 2 11 - -
Do, 21.01. 1:20 7 2 - - -
Do, 21.01. 1:10 7 2 - 20° N
Do, 21.01. 1:00 11 2 14 20° N
Do, 21.01. 0:50 11 2 - 20° N
Do, 21.01. 0:40 11 2 - 10° N
Do, 21.01. 0:30 7 2 7 - -
Do, 21.01. 0:00 9 2 11 10° N
Mi, 20.01. 23:30 9 2 11 360° N
Mi, 20.01. 23:00 7 2 11 360° N
Mi, 20.01. 22:30 7 2 11 360° N
Ortszeit Untergrenze Bedeckung Gattung
total tief tief mittel hoch
Do, 21.01. 1:00 3600 m 8/8 8/8 - - -
Mi, 20.01. 19:00 3300 m 8/8 8/8 - - -
Mi, 20.01. 13:00 2700 m 7/8 2/8 - - -
Mi, 20.01. 7:00 3600 m 8/8 8/8 - - -
Mi, 20.01. 1:00 5100 m 8/8 4/8 - - -
Di, 19.01. 19:00 270 m 8/8 8/8 - - -
Di, 19.01. 13:00 240 m 8/8 8/8 - - -
Di, 19.01. 7:00 1050 m 8/8 8/8 - - -
Ortszeit Bedeckungsgrad in Achtel und Wolkenuntergrenze
Do, 21.01. 1:30 8(3300m) 8(5100m) 8(7800m)
Do, 21.01. 1:20 8(3300m) 8(5100m) 8(7800m)
Do, 21.01. 1:10 8(3600m) 8(8100m) 8(9000m)
Do, 21.01. 1:00 8(3600m) 8(4800m) 8(8400m)
Do, 21.01. 0:50 8(3600m) 8(4800m) 8(8400m)
Do, 21.01. 0:40 8(3600m) 8(5100m) 8(9000m)
Do, 21.01. 0:30 8(4200m) 8(5100m) 8(9000m)
Do, 21.01. 0:00 6(4200m) 8(5100m) 8(5100m)
Mi, 20.01. 23:30 8(4800m) 8(10500m)
Mi, 20.01. 23:00 8(4500m)
Mi, 20.01. 22:30 8(4200m)
Ortszeit Luftdruck NN (hPa) Tendenz (hPa in 3 Std.)
Do, 21.01. 1:00 1003 - 1,2
Mi, 20.01. 19:00 1006 - 0,3
Mi, 20.01. 13:00 1007 - 1,7
Mi, 20.01. 7:00 1010 - 0,7
Mi, 20.01. 1:00 1012 - 0,9
Di, 19.01. 19:00 1013 + 0,8
Di, 19.01. 13:00 1013 - 2,9
Di, 19.01. 7:00 1018 - 2,1
Ortszeit Luftdruck NN (hPa) Tendenz (hPa in 3 Std.)
Do, 21.01. 1:30 1003 - 1,4
Do, 21.01. 1:20 1003 keine Meldung
Do, 21.01. 1:10 1003 keine Meldung
Do, 21.01. 1:00 1003 - 1,2
Do, 21.01. 0:50 1003 keine Meldung
Do, 21.01. 0:40 1004 keine Meldung
Do, 21.01. 0:30 1004 - 1,1
Do, 21.01. 0:00 1004 - 1,0
Mi, 20.01. 23:30 1004 - 0,7
Mi, 20.01. 23:00 1004 - 1,2
Mi, 20.01. 22:30 1004 - 1,1
Ortszeit Schneehöhe (cm)
Do, 21.01. 1:00 1
Mi, 20.01. 19:00 -
Mi, 20.01. 13:00 -
Mi, 20.01. 7:00 2
Mi, 20.01. 1:00 2
Di, 19.01. 19:00 2
Di, 19.01. 13:00 2
Di, 19.01. 7:00 2
Ortszeit Schneehöhe (cm)
Do, 21.01. 1:30 1
Do, 21.01. 1:20 1
Do, 21.01. 1:10 1
Do, 21.01. 1:00 1
Do, 21.01. 0:50 1
Do, 21.01. 0:40 1
Do, 21.01. 0:30 1
Do, 21.01. 0:00 -
Mi, 20.01. 23:30 -
Mi, 20.01. 23:00 -
Mi, 20.01. 22:30 -
Link zu dieser Seite / Seite empfehlen

Das Wetter in ...